Back to catalog

COSMOS 793

AliveMilitaryLEO
NORAD 8609·PAYLOAD·🇷🇺 Russia

Launched Jan 28, 1976 from Plesetsk Cosmodrome

Loading…

Next Passes (next 24 hours)

TLE

FreshSource: Space-Track

Epoch: Sep 14, 2026, 15:12 UTC

1 08609U 76008C   26257.63399552 -.00000001  00000-0  93002-4 0  9998
2 08609  74.0535 123.5306 0046889 226.2100 161.3935 12.52647670315149

Track COSMOS 793 in real time with AllMySat

Download on the App Store